Regional Weather Roundup
Issued by NWS Albany, NY

Home | Current Version | Previous Version | Text Only | Print | Product List | Glossary On
Versions: 1 2 3 4 5 6 7 8 9 10 11 12 13 14 15 16 17 18 19 20 21 22 23 24 25 26 27 28 29 30 31 32 33 34 35 36 37 38 39 40 41 42 43 44 45 46 47 48 49 50
000
ASUS41 KALY 270810
RWRALY

NEW YORK STATE HOURLY WEATHER ROUNDUP
NATIONAL WEATHER SERVICE ALBANY NY
400 AM EDT SUN MAY 27 2018

NOTE: "FAIR" INDICATES FEW OR NO CLOUDS BELOW 12,000 FEET WITH NO
SIGNIFICANT WEATHER AND/OR NO OBSTRUCTIONS TO VISIBILITY.

NYZ032-033-038>043-046>054-057>066-NYZ062>081-082-084-270900-
EAST


CITY           SKY/WX    TMP DP  RH WIND       PRES   REMARKS
ALBANY         CLOUDY    65  60  84 CALM      29.96R
GLENS FALLS    FAIR      62  60  93 W3        29.97R
POUGHKEEPSIE   MOCLDY    68  62  81 CALM      29.91R
NEWBURGH       CLOUDY    72  63  73 E12       29.94R
MONTGOMERY     CLOUDY    69  62  78 NE7       29.92R
WHITE PLAINS   LGT RAIN  67  63  87 E6        29.92R
ISLIP          FAIR      66  61  84 E9        29.92R
NEW YORK CITY  CLOUDY    68  62  81 NE9       29.90R
CENTRAL PARK   MOCLDY    71  63  75 NE7       29.94R
$$

NYZ005>009-017-018-044>046-055-056-270900-
CENTRAL


CITY           SKY/WX    TMP DP  RH WIND       PRES   REMARKS
FULTON         FAIR      67  61  81 VRB3      29.89S
SYRACUSE       LGT RAIN  67  65  93 E8        29.88S
ROME           MOCLDY    67  62  84 E7        29.93S
ELMIRA         CLOUDY    66  63  90 CALM      29.91S
BINGHAMTON     CLOUDY    65  59  81 S5        29.94S
$$

NYZ026>034-041>043-087-270900-
NORTH


CITY           SKY/WX    TMP DP  RH WIND       PRES   REMARKS
WATERTOWN      FAIR      63  62  97 N3        29.89R
FORT DRUM      NOT AVBL
OGDENSBURG     FAIR      61  52  71 NE3       29.93R
MASSENA        FAIR      60  46  59 NE12      29.95S
SARANAC LAKE   FAIR      54  54 100 CALM      29.96F
PLATTSBURGH    MOCLDY    55  54  96 CALM      29.98R FOG
$$

NYZ001>004-010>016-019>021-085-270900-
WEST


CITY           SKY/WX    TMP DP  RH WIND       PRES   REMARKS
NIAGARA FALLS  FAIR      67  58  72 SE3       29.87S
BUFFALO        MOCLDY    67  61  81 S3        29.88S
DUNKIRK        CLOUDY    66  61  84 N6        29.88R
JAMESTOWN      LGT RAIN  61  61 100 SE6       29.94S FOG
WELLSVILLE     RAIN      63  61  93 W7        29.98R FOG
ROCHESTER      CLOUDY    68  61  78 NE3       29.89S
PENN YAN       LGT RAIN  66  61  84 S5        29.91R
$$

             KEY
       WCI = WIND CHILL INDEX
       VSB = VISIBILITY
       HX  = HEAT INDEX
$$



USA.gov is the U.S. government's official web portal to all federal, state and local government web resources and services.